JILIN-01 GAOFEN 3E (46457 NORAD) Tracking and Keplerian Element Data

This shows tracking and keplerian element data for the satellite.

Feedback or suggestion? Click here.




ElementValue
Catalog46457
NameJILIN-01 GAOFEN 3E
Epoch Orbit129
Epoch Day267.60507061
Epoch Year2020
RAAN323.122
Inclination97.5378
Eccentricity0.001086
Argument of Perigee263.3504
Mean Anonmoly200.5808
Mean Motion15.09290428
Decay Rate-6.3E-07
L11 46457U 20065D 20267.60507061 -.00000063 00000-0 23174-7 0 9995
L22 46457 97.5378 323.1220 0010860 263.3504 200.5808 15.09290428 1293

Live tracking and technical data element details for JILIN-01 GAOFEN 3E (NORAD 46457). JILIN-01 GAOFEN 3E can be tracked NOW for your location showing map with azimuth and elevation plus other details from your city location.

Track the satellite on the map from your city or location and see movement details for azimuth, elevation, latitude, longitude, range, height, and movement on the map or in text.







IsCatalogInMostPopularTable: catalog: 46457, numindb: 3
Update: records affected: 1



GetName: 46457 JILIN-01 GAOFEN 3E

Hit Count: updated at: Sat, 26 Sep 2020 14:39:38 GMT